Regional Weather Roundup
Issued by NWS

Home | Current Version | Previous Version | Text Only | Print | Product List | Glossary On
Versions: 1 2 3 4 5 6 7 8 9 10 11 12 13 14 15 16 17 18 19 20 21 22 23 24 25 26 27
000
ASUS45 KBOU 242007
RWRCO

WEATHER ROUNDUP FOR COLORADO
NATIONAL WEATHER SERVICE DENVER/BOULDER CO
100 PM MST TUE JAN 24 2017

NOTE: "FAIR" INDICATES FEW OR NO CLOUDS BELOW 12000 FEET WITH NO
SIGNIFICANT WEATHER AND/OR OBSTRUCTIONS TO VISIBILITY.

COZ001>005-013-030-031-242100-
...NORTHWEST COLORADO...

CITY           SKY/WX    TMP DP  RH WIND       PRES   REMARKS
CRAIG          PTSUNNY   25  15  66 W16       29.66F WCI  12
HAYDEN         CLOUDY    23  14  68 W15       29.64S WCI  10
MEEKER         LGT SNOW  25  21  85 SW5       29.65F FOG     WCI  19
MOUNT WERNER   NOT AVBL
STEAMBOAT SPGS CLOUDY    22  15  75 SW13G18   29.62S WCI  10
WALDEN           N/A     19  12  73 CALM      29.56S
$$

COZ006>008-011-242100-
...WEST CENTRAL VALLEYS...

CITY           SKY/WX    TMP DP  RH WIND       PRES   REMARKS
GRAND JUNCTION PTSUNNY   36  24  62 NW13      29.68S
MONTROSE       FAIR      32  23  69 W7        29.66F WCI  26
EAGLE          FLURRIES  25  21  86 W7        29.62F WCI  17
RIFLE          FAIR      33  23  66 W15G24    29.62F WCI  23
DELTA          FAIR      39  26  60 W21G26    29.65S
NUCLA          PTSUNNY   32  25  74 NW6       29.69F WCI  26
$$

COZ017>023-064>068-242100-
...SOUTHWEST COLORADO...

CITY           SKY/WX    TMP DP  RH WIND       PRES   REMARKS
DURANGO        FLURRIES  27  22  81 SW18      29.65F WCI  14
CORTEZ         CLOUDY    30  26  85 SW17      29.69F WCI  18
PAGOSA SPRINGS CLOUDY    27  19  72 SW15G21   29.61F WCI  15
TELLURIDE      SNOW      20  16  82 NW13G22   29.60S VSB 1/4 WCI   8
WOLF CREEK PAS CLOUDY     9   7  92 S28G35    29.53F WCI -13
$$

COZ009-010-012-014-032>034-037-058>063-242100-
...CENTRAL COLORADO...

CITY           SKY/WX    TMP DP  RH WIND       PRES   REMARKS
ASPEN          PTSUNNY   23  18  81 SW3       29.55F HAZE
BUENA VISTA    PTSUNNY   28   9  46 NW12      29.50F WCI  18
COPPER MTN     FAIR      12   5  73 MISG      29.46F
BERTHOUD PASS  NOT AVBL
COTTONWOOD PAS FAIR      27   3  36 SW13G21   29.49F WCI  16
GUNNISON       FLURRIES  23  15  71 E5        29.58F WCI  17
KREMMLING      CLOUDY    27  16  63 CALM      29.59F
LEADVILLE      PTSUNNY   17   5  59 VRB3      29.48F
MONARCH PASS   CLOUDY     9   5  85 W6        29.57S WCI  -1
SALIDA         CLOUDY    32  16  53 NW6       29.59F WCI  26
SUNLIGHT       CLOUDY   N/A N/A N/A MISG      29.55F
WILKERSON PASS FAIR      18   5  57 W7        29.48S WCI   8
$$

COZ069>075-242100-
...SAN LUIS VALLEY/SANGRE DE CRISTO MOUNTAINS...

CITY           SKY/WX    TMP DP  RH WIND       PRES   REMARKS
ALAMOSA        FAIR      30  18  60 E7        29.53F WCI  23
LA VETA PASS   PTSUNNY   23  16  74 N22G36    29.48S HAZE    WCI   8
SAGUACHE       PTSUNNY   28  18  64 NW10      29.54S WCI  19
$$

COZ035-036-038>040-242100-
...NORTHERN COLORADO FRONT RANGE...

CITY           SKY/WX    TMP DP  RH WIND       PRES   REMARKS
DENVER INTL AP CLOUDY    25  21  85 N17       29.58F WCI  12
DMNS CITY PARK   N/A     26  22  87 NE8       29.59S WCI  17
AURORA         CLOUDY    24  24  99 N10       29.58S WCI  13
FRONT RANGE AP CLOUDY    28  25  86 N15       29.58F WCI  17
ERIE MUNI ARPT CLOUDY    27  22  82 NE10      29.61S WCI  17
BOULDER MUN AP MIX PCPN  27  27 100 CALM      29.59F
CENTENNIAL     CLOUDY    23  21  92 NE8       29.57S FOG     WCI  14
BROOMFIELD     CLOUDY    27  25  93 NE6       29.59F FOG     WCI  20
FORT COLLINS     N/A     28  22  78 NE12      29.61F WCI  18
LONGMONT       CLOUDY    28  24  82 NE8       29.63F WCI  20
$$

COZ041-046-047-076>085-087-088-242100-
...PIKES PEAK/PALMER DIVIDE AND SOUTHERN FOOTHILLS...

CITY           SKY/WX    TMP DP  RH WIND       PRES   REMARKS
COLO. SPRINGS  PTSUNNY   34  20  56 N18G26    29.49F WCI  23
A. F. ACADEMY  FAIR      32  20  63 NE23G30   29.47F WCI  19
SCHRIEVER AFB  PTSUNNY   30  23  75 N18G30    29.50S WCI  18
ELLICOTT       FAIR     N/A N/A N/A N22G28    29.49S
FALCON         CLOUDY    26  23  88 N21G26    29.49F WCI  12
FORT CARSON    PTSUNNY   38  17  42 N13G21    29.47F
LIMON          CLOUDY    25  23  92 N21G28    29.53S WCI  11
MONUMENT HILL  FOG       23  21  93 N12       29.53S VSB 1/4 WCI  12
TRINIDAD       CLOUDY    39  21  48 N10       29.48F
$$

COZ042>045-048>051-090-091-242100-
...NORTHEAST COLORADO...

CITY           SKY/WX    TMP DP  RH WIND       PRES   REMARKS
GREELEY ARPT   CLOUDY    26  19  74 N16       29.64S WCI  14
AKRON          CLOUDY    24  19  81 N22G31    29.56F WCI   9
BURLINGTON     CLOUDY    29  25  85 N25G33    29.50S WCI  14
WRAY           NOT AVBL
STERLING       PTSUNNY   30  21  69 N22G28    29.60S WCI  17
HOLYOKE        PTSUNNY   30  27  86 N23G32    29.56F WCI  17
FORT MORGAN    CLOUDY    27  17  67 N16G23    29.61S WCI  15
$$

COZ086-089-092>099-242100-
...SOUTHEAST COLORADO...

CITY           SKY/WX    TMP DP  RH WIND       PRES   REMARKS
PUEBLO         FAIR      42  22  44 NE15      29.50F
LA JUNTA       CLOUDY    41  28  60 N13       29.51F
LAMAR          CLOUDY    39  28  64 N20       29.50R
SPRINGFIELD      N/A     43  30  60 N16       29.46S
$$




USA.gov is the U.S. government's official web portal to all federal, state and local government web resources and services.